Regional Weather Roundup
Issued by NWS

Home | Current Version | Previous Version | Graphics & Text | Print | Product List | Glossary On
Versions: 1 2 3 4 5 6 7 8 9 10 11 12 13 14 15 16 17 18 19 20 21 22 23 24 25 26 27 28 29 30 31 32 33 34 35 36 37 38 39 40 41 42 43 44 45 46 47 48 49 50
000
ASUS45 KTFX 212104
RWRMT
MONTANA HOURLY WEATHER ROUNDUP
NATIONAL WEATHER SERVICE GREAT FALLS MT
304 PM MDT TUE OCT 21 2014

NOTE: "FAIR" INDICATES FEW OR NO CLOUDS BELOW 12000 FEET WITH NO
SIGNIFICANT WEATHER AND/OR OBSTRUCTIONS TO VISIBILITY.

* THESE STATIONS ARE NOT UNDER NWS QUALITY CONTROL. THEY DO NOT
   REPORT WEATHER SUCH AS PRECIPITATION OR FOG.

MTZ001>007-043-212200-
WEST OF THE DIVIDE
CITY           SKY/WX    TMP DP  RH WIND       PRES   REMARKS
KALISPELL      CLOUDY    52  46  80 S7        29.84R
MISSOULA       LGT RAIN  46  45  96 E3        29.93R
BUTTE          LGT RAIN  39  36  89 NW7       29.89R WCI  34
MULLAN PASS    CLOUDY    36  34  92 VRB5      29.93R WCI  32
* ESSEX        N/A       46  43  89 W2         N/A
* LINCOLN      N/A       42  39  89 S5G13      N/A
* LOOKOUT PASS N/A       42  38  86 SE2G10     N/A
* POLSON       N/A       47  47 100 S2         N/A
* RONAN APT    CLOUDY    48  45  89 SE6        N/A
* SEELEY LAKE  N/A       43  42  96 SE2        N/A
* THOMP F APT  CLOUDY    43  30  60 S18G34     N/A
$$

MTZ008-052>055-212200-
SOUTHWEST MONTANA
CITY           SKY/WX    TMP DP  RH WIND       PRES   REMARKS
BOZEMAN        PTCLDY    63  30  29 W29G37    29.75R
DILLON         LGT RAIN  41  37  86 SW20      29.91R
W YELLOWSTONE  CLOUDY    37  32  82 SW13G25   29.99S WCI  29
* THREE FORKS  PTCLDY    57  45  64 W17G23     N/A
* BOULDER HILL N/A       42  34  73 NE2        N/A
* MONIDA PASS  N/A       40  34  79 W14G26     N/A   WCI  32
* RAYNOLDS PAS N/A       41  26  55 S22G31     N/A
* WHITEHALL    N/A       48  36  63 SW9G27     N/A
* WISE RIVER   N/A       38  34  86 NW12G17    N/A   WCI  30
$$

MTZ009>010-012-014-046-048-049-054-212200-
EAST SLOPES AND CENTRAL MONTANA
CITY           SKY/WX    TMP DP  RH WIND       PRES   REMARKS
CUT BANK       LGT RAIN  48  48 100 W6        29.74S
GREAT FALLS    LGT RAIN  46  45  96 W13       29.77R
HELENA         LGT RAIN  45  39  80 W9        29.83R
MALMSTROM AFB  LGT RAIN  48  46  93 W14       29.79R
* CONRAD       CLOUDY    48  48 100 W9         N/A
* DEARBORN     N/A       48  45  89 S4G9       N/A
* EAST GLACIER N/A       46  36  68 W9G16      N/A
* MONARCH      N/A       41  39  93 W17G22     N/A
* PENDROY      N/A       45  44  96 W2         N/A
* ROGERS PASS  N/A       38  35  89 E7G14      N/A   WCI  33
* SAINT MARY   N/A       49  37  63 SW8G19     N/A
* SWEET GRASS  N/A       49  49 100 NW9        N/A
$$

MTZ011-013-016-021-035-040-045-047-050-051-212200-
NORTH CENTRAL MONTANA
CITY           SKY/WX    TMP DP  RH WIND       PRES   REMARKS
HAVRE          CLOUDY    59  46  62 W8        29.64F
LEWISTOWN      CLOUDY    64  45  50 W10G18    29.66R
* CHINOOK      CLOUDY    57  46  67 W8        29.62F
* FORT BENTON  CLOUDY    54  46  74 SW8       29.74R
* CHESTER      N/A       54  45  72 NW19G30    N/A
* DENTON       N/A       56  45  67 NW13G19    N/A
* GEYSER       N/A       48  46  93 W29G42     N/A
* JUDITH GAP   N/A       62  45  54 SW6        N/A
* LOMA         N/A       56  47  72 W13G19     N/A
$$

MTZ017>020-022>027-061-062-212200-
NORTHEAST MONTANA
CITY           SKY/WX    TMP DP  RH WIND       PRES   REMARKS
GLASGOW        PTCLDY    75  46  36 SE8       29.55F
GLENDIVE       SUNNY     72  41  33 S7        29.61F
JORDAN         PTCLDY    79  37  22 W16       29.58S
SIDNEY         SUNNY     72  46  40 CALM      29.60F
WOLF POINT     SUNNY     75  48  39 E7        29.55F
* BEAVER HILL  N/A       76  39  26 S12        N/A
* CIRCLE       N/A       80  45  29 S1G7       N/A
* LINDSAY DVD  N/A       76  43  31 W6         N/A
* NAVAJO       N/A       74  43  33 SE7        N/A
$$

MTZ028>042-056>058-212200-
SOUTHCENTRAL AND SOUTHEAST MONTANA
CITY           SKY/WX    TMP DP  RH WIND       PRES   REMARKS
BAKER          SUNNY     81  37  21 SW10      29.63F
BILLINGS       CLOUDY    70  34  27 SW12      29.66F
LIVINGSTON     PTCLDY    63  28  27 SW29G46   29.75R
MILES CITY     SUNNY     75  41  30 S3        29.60F
* LAUREL APT   CLOUDY    70  34  27 SW11G20    N/A
* ROUNDUP APT  PTSUNNY   72  37  28 S10G15     N/A
* ALZADA       N/A       81  38  21 S12        N/A
* HYSHAM       N/A       70  35  28 W2G7       N/A
* LAME DEER    N/A       75  34  22 SW7G12     N/A
* REED POINT   N/A       63  41  45 SW2        N/A
* ROSCOE HILL  N/A       64  27  25 SW17G31    N/A
$$

REGIONAL REPORTS...DAKOTAS
CITY           SKY/WX    TMP DP  RH WIND       PRES   REMARKS
WILLISTON      SUNNY     75  43  32 SE10      29.59F
DICKINSON      SUNNY     79  45  30 S20       29.62F
BEACH          N/A       77  37  24 SW14      29.61F
CROSBY         SUNNY     75  43  32 SE13      29.59F
TIOGA          SUNNY     70  41  35 SE13G18   29.65S
BISMARCK       PTCLDY    81  46  29 S14G26    29.68S
GRAND FORKS    SUNNY     64  43  47 SE26G38   29.86F
FARGO          SUNNY     66  41  40 SE22G38   29.89F
RAPID CITY     HAZE      81  43  26 S17G28    29.73F
$$

REGIONAL REPORTS...WYOMING/IDAHO/WASHINGTON
CITY           SKY/WX    TMP DP  RH WIND       PRES   REMARKS
GILLETTE       SUNNY     77  36  23 SW20G33   29.73F
SHERIDAN       PTSUNNY   77  34  21 SW18G24   29.67F
CODY           PTSUNNY  N/A N/A N/A W20G28    29.78R
YELLOWSTONE LA CLOUDY    37  28  70 W10G17    30.03R WCI  30
SALMON         CLOUDY    45  39  80 NE3       30.00R
MULLAN PASS    CLOUDY    36  34  92 VRB5      29.93S WCI  32
SAND POINT     CLOUDY    54  43  67 SW10G17   29.91R
SPOKANE        PTSUNNY   57  43  60 SW16G24   29.92S

$$




USA.gov is the U.S. government's official web portal to all federal, state and local government web resources and services.